Home > Weather > Minsk > Past weeks

Flag for Belarus Past Weather in Minsk, Belarus — Yesterday and Last 2 Weeks

Now
64 °F

Clear.


Feels Like: 64 °F
Forecast: 62 / 78 °F
Wind: 3 mph from Northeast

Location: Minsk

Current Time: May 31, 2016 at 1:22:04 AM

Latest Report: May 31, 2016 at 1:00 AM


Visibility: 10 mi

Pressure: 29.95 "Hg

Humidity: 83%

Dew Point: 59 °F

Location of MinskLocation

Past Weather in Minsk — Graph

°F

Minsk Temperature Yesterday

Maximum temperature yesterday: 82 °F (at 1:30 PM)
Minimum temperature yesterday: 63 °F (at 2:00 AM)
Average temperature yesterday: 69 °F

High & Low Weather Summary for the Past Weeks

 TemperatureHumidityPressure
High82 °F (May 30, 1:30 PM)100% (May 16, 12:00 AM)30.12 "Hg (May 16, 12:00 AM)
Low34 °F (May 18, 5:00 AM)29% (May 23, 3:00 PM)29.74 "Hg (May 25, 9:30 AM)
Average58 °F71%29.92 "Hg
* Reported May 16 12:00 AM — May 31 12:00 AM, Minsk, Weather by CustomWeather, © 2016

Note: Actual official high and low records may vary slightly from our data, if they occured in-between our weather recording intervals... More about our weather records

Advertising

Minsk Weather History for the Previous 24 Hours

Scroll right to see more
 ConditionsComfort  
Time TempWeatherWind HumidityBarometerVisibility
12:00 AM
Tue, May 31
64 °FClear.3 mph88%29.95 "Hg10 mi
11:30 PM
Mon, May 30
64 °FClear.1 mph88%29.95 "Hg10 mi
11:00 PM66 °FClear.3 mph83%29.95 "Hg10 mi
10:30 PM66 °FClear.3 mph83%29.95 "Hg10 mi
10:00 PM68 °FPassing clouds.3 mph78%29.95 "HgN/A
9:30 PM68 °FPassing clouds.6 mph78%29.95 "HgN/A
9:00 PM68 °FSunny.6 mph78%29.95 "Hg10 mi
8:30 PM70 °FPassing clouds.8 mph73%29.95 "HgN/A
8:00 PM72 °FPassing clouds.10 mph73%29.95 "HgN/A
7:30 PM73 °FPassing clouds.6 mph65%29.92 "HgN/A
7:00 PM73 °FBroken clouds.8 mph69%29.92 "HgN/A
6:30 PM70 °FPartly sunny.8 mph73%29.92 "HgN/A
6:00 PM72 °FSprinkles. Partly sunny.17 mph65%29.95 "HgN/A
5:30 PM73 °FPartly sunny.3 mph65%29.92 "HgN/A
5:00 PM72 °FPartly sunny.6 mph73%29.95 "HgN/A
4:30 PM73 °FPartly sunny.8 mph69%29.95 "HgN/A
4:00 PM77 °FSprinkles. Partly sunny.8 mph61%29.95 "HgN/A
3:30 PM72 °FPartly sunny.8 mph73%29.95 "HgN/A
3:00 PM73 °FThunderstorms. Partly sunny.8 mph65%29.95 "HgN/A
2:00 PM81 °FPartly sunny.8 mph45%29.95 "HgN/A
1:30 PM82 °FBroken clouds.10 mph40%29.95 "HgN/A
1:00 PM79 °FBroken clouds.8 mph51%29.95 "HgN/A
12:30 PM79 °FPartly sunny.13 mph51%29.95 "HgN/A
12:00 PM79 °FPartly sunny.15 mph51%29.95 "HgN/A
11:30 AM79 °FBroken clouds.13 mph51%29.95 "HgN/A
11:00 AM77 °FPartly sunny.8 mph57%29.95 "HgN/A
10:30 AM75 °FPartly sunny.8 mph65%29.95 "HgN/A
10:00 AM73 °FPassing clouds.8 mph69%29.95 "HgN/A
9:30 AM72 °FPassing clouds.6 mph69%29.98 "HgN/A
9:00 AM70 °FPassing clouds.6 mph73%29.95 "HgN/A
8:30 AM68 °FPartly sunny.8 mph78%29.95 "HgN/A
8:00 AM66 °FPartly sunny.10 mph83%29.95 "HgN/A
7:52 AM64 °FPartly sunny.8 mph88%29.95 "HgN/A
7:30 AM64 °FPartly sunny.6 mph88%29.95 "HgN/A
7:00 AM63 °FPartly sunny.6 mph94%29.95 "HgN/A
6:30 AM63 °FPassing clouds.6 mph88%29.95 "HgN/A
6:00 AM63 °FPassing clouds.6 mph88%29.95 "HgN/A
5:30 AM63 °FPassing clouds.6 mph88%29.95 "HgN/A
5:00 AM63 °FClear.6 mph88%29.95 "Hg10 mi
4:30 AM63 °FClear.6 mph88%29.95 "Hg10 mi
4:00 AM63 °FPassing clouds.3 mph88%29.98 "HgN/A
3:30 AM63 °FClear.6 mph88%29.98 "Hg10 mi
3:00 AM63 °FClear.3 mph88%29.98 "Hg10 mi
2:30 AM63 °FPassing clouds.3 mph88%29.98 "HgN/A
2:00 AM63 °FPassing clouds.3 mph88%29.98 "HgN/A
1:30 AM64 °FPassing clouds.6 mph83%29.98 "HgN/A
1:00 AM64 °FPassing clouds.6 mph83%29.98 "HgN/A
Weather by CustomWeather, © 2016

See weather overviewHow to use our weather pages